[[{"header":{"parameterUnit":"m.s-1","parameterCategory":1,"la1":30.2991,"la2":30.254,"lo1":-89.0895,"lo2":-89.0444,"dy":0.0017,"dx":0.0017,"nx":28,"ny":28,"refTime":"2024-06-01T21:00:00:Z","depth":0,"parameterNumber":2,"parameterNumberName":"U-component_of_WINDS"},"data":[0,0,0,0,0,0,0,0,0,0,0,0,0,0,0,0,0,0,0,0,0,0,0,0,0,0,0,0,0,0,0,0,0,0,0,0,0,0,0,0,0,0,0,0,0,0,0,0,0,0,0,0,0,0,0,0,0,0,-1.3627,-1.3627,0,-1.3566,-1.3566,-1.3565,-1.3527,-1.3527,-1.3527,-1.3526,-1.3461,-1.3459,-1.3458,0,0,0,0,0,0,0,0,0,0,0,0,0,-1.371,-1.3709,-1.3628,-1.3627,-1.3626,-1.3566,-1.3565,-1.3565,-1.3527,-1.3527,-1.3527,-1.3526,-1.3461,-1.3459,-1.3458,0,0,0,0,0,0,0,0,0,0,0,0,0,-1.3664,-1.3709,-1.3628,-1.36,-1.3597,-1.3567,-1.3565,-1.3564,-1.3527,-1.3527,-1.3526,-1.3526,-1.3462,-1.346,-1.3457,-1.3449,0,0,-1.345,-1.3449,0,0,0,0,0,0,0,0,-1.3667,-1.3661,-1.3605,-1.3602,-1.3598,-1.3554,-1.3571,-1.3525,-1.3527,-1.3554,-1.3526,-1.3526,-1.3492,-1.3487,-1.3476,-1.3445,-1.3443,-1.345,-1.3448,-1.3447,-1.3447,0,0,0,0,0,0,0,-1.367,-1.3664,-1.3603,-1.3604,-1.36,-1.359,-1.3583,-1.3562,-1.3525,-1.3551,-1.3548,-1.3542,-1.349,-1.3478,-1.3474,-1.3442,-1.345,-1.3448,-1.3446,-1.3445,-1.3401,-1.3402,0,0,0,0,0,0,-1.3678,-1.3667,-1.3605,-1.3601,-1.3633,-1.3589,-1.3581,-1.3569,-1.3525,-1.3518,-1.3542,-1.354,-1.3483,-1.3477,-1.3472,-1.3459,-1.3447,-1.3445,-1.3444,-1.3401,-1.3401,-1.3402,0,0,0,0,0,0,-1.368,-1.3673,-1.3608,-1.3633,-1.3624,-1.3588,-1.3574,-1.3567,-1.3556,-1.3518,-1.3511,-1.3537,-1.3482,-1.3475,-1.3455,-1.3456,-1.3444,-1.3442,-1.3401,-1.3401,-1.3402,-1.3432,0,0,0,0,0,0,-1.3682,-1.3674,-1.367,-1.3633,-1.3623,-1.3592,-1.3574,-1.3566,-1.3552,-1.3549,-1.3512,-1.3505,-1.3481,-1.3459,-1.3453,-1.3452,-1.344,-1.3401,-1.3401,-1.3401,-1.3431,-1.3434,-1.3436,0,0,0,0,0,-1.3686,-1.3681,-1.367,-1.3663,-1.3618,-1.3592,-1.3586,-1.356,-1.3552,-1.3548,-1.3525,-1.3506,-1.3457,-1.3457,-1.345,-1.3449,-1.34,-1.3401,-1.3401,-1.343,-1.3433,-1.3436,0,0,0,0,0,0,-1.3717,-1.3675,-1.3663,-1.3647,-1.3624,-1.3586,-1.358,-1.3564,-1.3542,-1.354,-1.3507,-1.3499,-1.3482,-1.3463,-1.3464,-1.3438,-1.3427,-1.3426,-1.3451,-1.3453,-1.3456,-1.346,-1.3438,0,0,0,0,0,-1.3723,-1.3706,-1.367,-1.3659,-1.3648,-1.3616,-1.3604,-1.3586,-1.356,-1.355,-1.3524,-1.35,-1.3479,-1.3465,-1.3444,-1.3429,-1.342,-1.3425,-1.3427,-1.3429,-1.3429,-1.3419,-1.3421,-1.3403,-1.3403,-1.3403,0,0,-1.3733,-1.3708,-1.3699,-1.3665,-1.3644,-1.3628,-1.3608,-1.3591,-1.3578,-1.3547,-1.3526,-1.3507,-1.3478,-1.346,-1.3451,-1.3444,-1.3432,-1.343,-1.3432,-1.343,-1.342,-1.3422,-1.3423,-1.3404,-1.3404,-1.3404,0,0,-1.3743,-1.3722,-1.3711,-1.3692,-1.3662,-1.3641,-1.3639,-1.3604,-1.3591,-1.357,-1.3547,-1.3531,-1.3495,-1.3475,-1.346,-1.3465,-1.3447,-1.3459,-1.3471,-1.3462,-1.3463,-1.3464,-1.3465,-1.3466,-1.3458,-1.3458,-1.3458,0,-1.3759,-1.3733,-1.3707,-1.3691,-1.3676,-1.365,-1.3637,-1.362,-1.3585,-1.3575,-1.3568,-1.3524,-1.3502,-1.3479,-1.3481,-1.347,-1.3465,-1.3462,-1.3466,-1.3466,-1.3467,-1.3467,-1.3468,-1.346,-1.346,-1.3459,-1.3459,0,-1.3754,-1.3736,-1.373,-1.3698,-1.3683,-1.3669,-1.3641,-1.3629,-1.3613,-1.3593,-1.3572,-1.3545,-1.3518,-1.3512,-1.3495,-1.3487,-1.3484,-1.3472,-1.3459,-1.3471,-1.347,-1.3471,-1.3462,-1.3461,-1.3461,-1.3461,0,0,-1.378,-1.3735,-1.3733,-1.3718,-1.3685,-1.367,-1.3656,-1.363,-1.362,-1.3598,-1.3584,-1.3556,-1.3545,-1.3528,-1.3509,-1.3502,-1.3507,-1.3491,-1.3489,-1.3494,-1.3496,-1.3504,-1.3505,-1.3496,-1.3496,-1.3496,-1.3498,0,-1.3784,-1.3756,-1.3733,-1.3714,-1.3698,-1.3673,-1.366,-1.3638,-1.3619,-1.3602,-1.3582,-1.3562,-1.3549,-1.3539,-1.3531,-1.3508,-1.3506,-1.3508,-1.3482,-1.3481,-1.3489,-1.3505,-1.3513,-1.3517,-1.3498,-1.3498,-1.3498,0,-1.3784,-1.3764,-1.3743,-1.3712,-1.3704,-1.3693,-1.3668,-1.3653,-1.3627,-1.3614,-1.3597,-1.3578,-1.3561,-1.3552,-1.3527,-1.3529,-1.3517,-1.3505,-1.3504,-1.3499,-1.3489,-1.35,-1.3517,-1.3517,-1.3498,-1.3498,-1.3498,0,-1.3805,-1.3772,-1.3755,-1.3744,-1.3707,-1.37,-1.3684,-1.3659,-1.3645,-1.3624,-1.3614,-1.3591,-1.3578,-1.356,-1.3535,-1.3531,-1.3514,-1.3502,-1.3502,-1.3502,-1.3498,-1.3498,-1.3513,-1.3493,-1.3493,-1.3493,-1.3493,0,-1.3811,-1.3799,-1.3764,-1.3754,-1.374,-1.3714,-1.3701,-1.3683,-1.3661,-1.3646,-1.3624,-1.3611,-1.3579,-1.3562,-1.3543,-1.3526,-1.352,-1.3509,-1.3503,-1.351,-1.3511,-1.3501,-1.3499,-1.3493,-1.3493,-1.3493,-1.3493,0,-1.383,-1.3807,-1.3787,-1.3755,-1.3746,-1.3738,-1.371,-1.3699,-1.368,-1.3662,-1.3656,-1.3626,-1.3605,-1.3579,-1.3549,-1.3536,-1.3521,-1.3514,-1.353,-1.3526,-1.3527,-1.3527,-1.3534,-1.3533,-1.3515,-1.3515,-1.3516,0,-1.3835,-1.3826,-1.3793,-1.3782,-1.3768,-1.375,-1.3737,-1.3711,-1.3698,-1.3669,-1.3662,-1.3639,-1.362,-1.3588,-1.3563,-1.354,-1.3531,-1.3536,-1.3528,-1.3535,-1.353,-1.3531,-1.3529,-1.3537,-1.3537,-1.3538,-1.3538,0,-1.3847,-1.3836,-1.3817,-1.3795,-1.378,-1.3761,-1.3741,-1.3734,-1.3704,-1.369,-1.3669,-1.3654,-1.3625,-1.3603,-1.3578,-1.3561,-1.3544,-1.3541,-1.3539,-1.3545,-1.3555,-1.3549,-1.3534,-1.354,-1.354,-1.354,-1.354,-1.354,-1.3858,-1.3849,-1.3824,-1.3805,-1.3788,-1.377,-1.3758,-1.3739,-1.3721,-1.3695,-1.3681,-1.3661,-1.3636,-1.36,-1.3585,-1.3568,-1.3562,-1.356,-1.3559,-1.3558,-1.356,-1.3559,-1.3563,-1.3563,-1.3563,-1.3563,-1.3563,0,-1.3867,-1.3851,-1.3834,-1.3807,-1.3792,-1.3779,-1.3757,-1.3745,-1.3727,-1.3706,-1.3688,-1.3664,-1.3643,-1.3617,-1.3594,-1.3586,-1.3578,-1.358,-1.358,-1.3576,-1.3567,-1.357,-1.3588,-1.3588,-1.3588,-1.3587,-1.3587,-1.3587,-1.387,-1.3854,-1.384,-1.3815,-1.3798,-1.3778,-1.3767,-1.375,-1.3733,-1.3708,-1.3691,-1.3674,-1.3651,-1.3627,-1.3607,-1.36,-1.3592,-1.3597,-1.3588,-1.3579,-1.3577,-1.3575,-1.3578,-1.3596,-1.3596,-1.3598,-1.3598,-1.3598]},{"header":{"parameterUnit":"m.s-1","parameterCategory":1,"la1":30.2991,"la2":30.254,"lo1":-89.0895,"lo2":-89.0444,"dy":0.0017,"dx":0.0017,"nx":28,"ny":28,"refTime":"2024-06-01T21:00:00:Z","depth":0,"parameterNumber":3,"parameterNumberName":"V-component_of_WINDS"},"data":[0,0,0,0,0,0,0,0,0,0,0,0,0,0,0,0,0,0,0,0,0,0,0,0,0,0,0,0,0,0,0,0,0,0,0,0,0,0,0,0,0,0,0,0,0,0,0,0,0,0,0,0,0,0,0,0,0,0,3.8223,3.8222,0,3.8136,3.8135,3.8134,3.8122,3.8123,3.8124,3.8124,3.8028,3.8025,3.8022,0,0,0,0,0,0,0,0,0,0,0,0,0,3.8373,3.837,3.8223,3.8222,3.8221,3.8136,3.8135,3.8133,3.8122,3.8123,3.8124,3.8125,3.8029,3.8025,3.8021,0,0,0,0,0,0,0,0,0,0,0,0,0,3.8299,3.837,3.8223,3.8205,3.8202,3.8136,3.8135,3.8133,3.8122,3.8123,3.8124,3.8125,3.8031,3.8026,3.8021,3.7964,0,0,3.8005,3.8003,0,0,0,0,0,0,0,0,3.8303,3.8293,3.8208,3.8206,3.8203,3.8141,3.8152,3.8076,3.8121,3.8152,3.8124,3.8126,3.8064,3.8057,3.8037,3.796,3.7956,3.8005,3.8002,3.8,3.7998,0,0,0,0,0,0,0,3.8308,3.8297,3.8188,3.8207,3.8204,3.8199,3.819,3.8138,3.8102,3.8149,3.8148,3.8139,3.8063,3.8042,3.8035,3.7954,3.8005,3.8001,3.7997,3.7996,3.7827,3.7826,0,0,0,0,0,0,3.8318,3.8301,3.8191,3.8185,3.8257,3.8195,3.8185,3.816,3.8102,3.8095,3.8138,3.8138,3.805,3.8041,3.8031,3.7962,3.8,3.7995,3.7992,3.7828,3.7827,3.7825,0,0,0,0,0,0,3.8321,3.8308,3.8194,3.8243,3.8228,3.8191,3.8163,3.8157,3.8136,3.8094,3.8086,3.8123,3.8051,3.8038,3.7982,3.7959,3.7993,3.7988,3.783,3.7828,3.7826,3.7823,0,0,0,0,0,0,3.8325,3.8309,3.8289,3.8243,3.8226,3.8148,3.8161,3.8155,3.8129,3.8129,3.8078,3.8071,3.8051,3.7989,3.7977,3.7952,3.7984,3.7832,3.7829,3.7826,3.7825,3.7821,3.7817,0,0,0,0,0,3.8331,3.829,3.8288,3.8274,3.82,3.8147,3.8137,3.8116,3.8127,3.8105,3.8078,3.8073,3.7963,3.7984,3.7969,3.7943,3.7833,3.783,3.7827,3.7826,3.7822,3.7818,0,0,0,0,0,0,3.8331,3.8283,3.8281,3.8224,3.819,3.8145,3.8117,3.8111,3.8072,3.8073,3.8047,3.8036,3.798,3.7956,3.7979,3.7886,3.7899,3.7893,3.7904,3.7899,3.7895,3.7902,3.798,0,0,0,0,0,3.8325,3.8288,3.8247,3.8201,3.8184,3.8154,3.813,3.8117,3.808,3.8064,3.8033,3.7995,3.7952,3.7924,3.7882,3.7822,3.781,3.7796,3.7793,3.779,3.7784,3.7751,3.7744,3.7814,3.7814,3.7814,0,0,3.8311,3.828,3.8258,3.82,3.8172,3.8133,3.8141,3.8099,3.8069,3.8057,3.8002,3.7978,3.7934,3.7875,3.7848,3.7853,3.7763,3.7786,3.7784,3.778,3.7747,3.774,3.7734,3.7812,3.7812,3.7813,0,0,3.8265,3.8239,3.8198,3.817,3.8129,3.8109,3.81,3.8056,3.804,3.7985,3.7976,3.7939,3.7865,3.7835,3.7809,3.7754,3.7748,3.7741,3.7721,3.7689,3.7683,3.7678,3.7658,3.7652,3.7736,3.7736,3.7736,0,3.8252,3.8195,3.8177,3.8135,3.811,3.8101,3.8058,3.8031,3.7977,3.7959,3.7967,3.7876,3.7845,3.778,3.7767,3.7746,3.7733,3.7746,3.7686,3.7681,3.7676,3.7656,3.7649,3.7735,3.7735,3.7735,3.7735,0,3.8181,3.8141,3.8112,3.8064,3.8035,3.7993,3.7967,3.794,3.7931,3.791,3.7854,3.7817,3.7768,3.7752,3.774,3.7684,3.7689,3.7692,3.7704,3.7669,3.765,3.7643,3.7735,3.7735,3.7735,3.7735,0,0,3.8131,3.8076,3.8065,3.8043,3.7998,3.7965,3.7923,3.7878,3.7855,3.7818,3.7781,3.772,3.7723,3.7694,3.7679,3.7651,3.761,3.7657,3.7655,3.7649,3.7545,3.7544,3.7536,3.7606,3.7604,3.7603,3.7549,0,3.8081,3.8007,3.7991,3.7927,3.7889,3.788,3.7843,3.781,3.779,3.7753,3.7729,3.7687,3.7694,3.7676,3.7648,3.7621,3.7588,3.7624,3.7569,3.7568,3.7581,3.7526,3.7524,3.7475,3.7542,3.7541,3.754,0,3.8011,3.7976,3.791,3.787,3.7854,3.7821,3.7779,3.7745,3.7707,3.7694,3.7663,3.7652,3.7605,3.7621,3.7557,3.7582,3.7558,3.7542,3.7539,3.7533,3.7551,3.7518,3.7459,3.7451,3.7528,3.7529,3.753,0,3.7983,3.7918,3.787,3.7852,3.7804,3.7782,3.776,3.7724,3.7698,3.766,3.7643,3.76,3.7576,3.7541,3.7518,3.7532,3.7455,3.7469,3.7442,3.7443,3.7426,3.7427,3.7362,3.7411,3.7411,3.7411,3.7412,0,3.7927,3.7887,3.7857,3.7827,3.7781,3.7762,3.7716,3.7694,3.7662,3.7627,3.7616,3.7583,3.7554,3.7517,3.7498,3.7447,3.7436,3.7423,3.7419,3.7424,3.7426,3.7408,3.7411,3.7409,3.741,3.741,3.7411,0,3.7887,3.7865,3.7813,3.7773,3.7762,3.773,3.7695,3.7665,3.7645,3.7601,3.7589,3.7557,3.7512,3.7486,3.7428,3.7416,3.736,3.7357,3.7374,3.7371,3.7346,3.7349,3.7266,3.7255,3.7312,3.7312,3.7311,0,3.7853,3.7822,3.778,3.7757,3.7737,3.7699,3.7674,3.7653,3.7626,3.7582,3.7557,3.7513,3.7476,3.7405,3.7374,3.7331,3.7326,3.7301,3.7319,3.7326,3.7326,3.7328,3.7325,3.7297,3.7297,3.7296,3.7296,0,3.7795,3.7787,3.7752,3.7713,3.7684,3.7652,3.7619,3.7601,3.7574,3.7545,3.7501,3.7472,3.7416,3.7371,3.7325,3.7301,3.7293,3.7291,3.7282,3.7287,3.7298,3.7292,3.7365,3.7292,3.7292,3.7293,3.7293,3.7293,3.7757,3.773,3.7697,3.7658,3.7632,3.7603,3.7573,3.7551,3.7514,3.7468,3.7458,3.7411,3.7374,3.7312,3.7287,3.7249,3.7253,3.7241,3.7237,3.7234,3.7234,3.7305,3.724,3.724,3.7241,3.7241,3.7241,0,3.7699,3.7678,3.7643,3.76,3.7569,3.7568,3.7532,3.7506,3.7466,3.7434,3.7399,3.7348,3.7305,3.7272,3.7228,3.7204,3.7199,3.7193,3.7194,3.7189,3.7233,3.7245,3.7197,3.7197,3.7197,3.7197,3.7197,3.7197,3.7665,3.7619,3.7607,3.7547,3.7525,3.7482,3.7462,3.7434,3.7408,3.7353,3.7318,3.7298,3.7265,3.7219,3.7179,3.717,3.7154,3.7149,3.7139,3.7181,3.7185,3.719,3.7201,3.7145,3.7145,3.7098,3.7098,3.7098]}]]